CW1490 Weather Reports


Display with metric or nautical units.
time (UTC)temp
F
wind
direction
speed
MPH
gust
MPH
rain 1hr
in
rain 24hr
in
rain mn
in
humidity
%
barometer
mb
20160210214956 33 280 3.0 8.0 0.00 0.08 0.08 86 1001.2
20160210213456 33 206 0.0 0.0 0.00 0.08 0.08 88 1000.9
20160210211956 33 206 0.0 0.0 0.00 0.08 0.08 87 1000.5
20160210210455 34 237 0.0 0.0 0.00 0.08 0.08 84 1000.6
20160210205019 34 238 0.0 6.0 0.00 0.09 0.08 85 1000.5
20160210203454 34 202 0.0 0.0 0.01 0.09 0.08 86 1000.2
20160210201954 34 203 0.0 2.0 0.01 0.09 0.08 86 1000.0
20160210200454 34 203 0.0 1.0 0.01 0.09 0.08 85 999.9
20160210194953 34 219 0.0 0.0 0.02 0.09 0.08 85 999.9
20160210193451 34 219 0.0 0.0 0.01 0.08 0.07 85 999.7
20160210191953 34 219 0.0 0.0 0.02 0.08 0.07 85 999.7
20160210190450 33 219 0.0 0.0 0.02 0.08 0.07 85 999.6
20160210184948 33 219 0.0 1.0 0.02 0.08 0.06 86 999.6
20160210183445 33 117 0.0 1.0 0.03 0.08 0.06 87 999.7
20160210181944 32 227 0.0 0.0 0.02 0.07 0.05 87 999.8
20160210180445 32 227 0.0 0.0 0.03 0.07 0.05 85 999.9
20160210174943 33 228 0.0 3.0 0.04 0.09 0.04 84 999.9
20160210173540 32 261 0.0 2.0 0.03 0.08 0.03 84 1000.0
20160210171938 32 263 2.0 6.0 0.03 0.08 0.03 85 1000.2
20160210170346 31 255 1.0 6.0 0.02 0.07 0.02 84 1000.4
20160210164930 30 240 1.0 4.0 0.00 0.10 0.00 85 1000.7
20160210163428 30 196 2.0 4.0 0.00 0.10 0.00 85 1001.1
20160210161925 29 212 0.0 5.0 0.00 0.10 0.00 86 1001.3
20160210160423 28 194 0.0 0.0 0.00 0.10 0.00 87 1001.4
20160210154831 28 207 2.0 4.0 0.00 0.12 0.00 87 1001.6
20160210153416 27 22 0.0 0.0 0.00 0.12 0.00 89 1001.7
20160210151913 26 21 0.0 0.0 0.00 0.12 0.00 91 1001.8
20160210150408 25 21 0.0 0.0 0.00 0.12 0.00 91 1001.9
20160210144905 25 22 0.0 0.0 0.00 0.12 0.00 92 1002.0
20160210143317 24 21 0.0 0.0 0.00 0.12 0.00 92 1002.0
20160210141816 23 22 0.0 0.0 0.00 0.12 0.00 92 1002.0
20160210140315 23 22 0.0 0.0 0.00 0.12 0.00 92 1002.0
20160210134814 22 21 0.0 0.0 0.00 0.12 0.00 93 1002.0
20160210133312 22 21 0.0 0.0 0.00 0.12 0.00 93 1002.1
20160210131810 21 21 0.0 0.0 0.00 0.12 0.00 93 1002.1
20160210130308 21 22 0.0 0.0 0.00 0.12 0.00 93 1002.1
20160210124807 21 22 0.0 0.0 0.00 0.12 0.00 93 1002.0
20160210123400 21 22 0.0 0.0 0.00 0.12 0.00 93 1002.0
20160210122326 20 22 0.0 0.0 0.00 0.12 0.00 93 1001.9
20160210101822 18 22 0.0 0.0 0.00 0.12 0.00 92 1001.4
20160210100322 17 22 0.0 3.0 0.00 0.12 0.00 92 1001.3
20160210094823 17 245 0.0 0.0 0.00 0.12 0.00 92 1001.3
20160210093321 17 246 2.0 4.0 0.00 0.12 0.00 92 1001.1
20160210091818 16 247 1.0 3.0 0.00 0.12 0.00 92 1001.1
20160210090314 16 350 0.0 0.0 0.00 0.12 0.00 92 1000.9
20160210084813 16 350 0.0 0.0 0.00 0.12 0.00 92 1000.9
20160210083311 17 350 0.0 0.0 0.00 0.12 0.00 92 1000.8
20160210081909 18 350 0.0 0.0 0.00 0.12 0.00 92 1000.9
20160210080310 18 350 0.0 0.0 0.00 0.12 0.00 92 1001.0
20160210074805 19 350 0.0 0.0 0.00 0.12 0.00 92 1001.1
20160210073258 19 350 0.0 0.0 0.00 0.12 0.00 92 1001.3
20160210071803 19 350 0.0 0.0 0.00 0.12 0.00 92 1001.2
20160210070301 20 350 0.0 0.0 0.00 0.12 0.00 92 1001.0
20160210064754 20 350 0.0 0.0 0.00 0.12 0.00 92 1001.0
20160210063251 20 350 0.0 0.0 0.00 0.12 0.00 92 1001.1
20160210061748 21 350 0.0 0.0 0.00 0.12 0.00 92 1001.1
20160210060245 22 350 0.0 0.0 0.00 0.12 0.00 92 1001.1
20160210054742 22 350 0.0 0.0 0.00 0.12 0.00 91 1001.2
20160210053225 23 350 0.0 0.0 0.00 0.12 0.00 91 1001.3
20160210051722 24 296 0.0 0.0 0.00 0.12 0.00 91 1001.5
20160210051246 24 296 0.0 0.0 0.00 0.12 0.00 91 1001.5
20160210013213 23 326 0.0 0.0 0.00 0.12 0.12 89 1002.1
20160210011713 23 326 0.0 0.0 0.00 0.12 0.12 87 1002.1
20160210010211 24 326 0.0 0.0 0.00 0.12 0.12 86 1002.0
20160210004710 24 326 0.0 0.0 0.00 0.12 0.12 86 1002.1
20160210003210 25 326 0.0 2.0 0.00 0.12 0.12 85 1002.1
20160210001709 25 317 0.0 0.0 0.00 0.12 0.12 86 1002.3
20160210000211 25 317 0.0 0.0 0.00 0.12 0.12 86 1002.3
20160209234808 25 317 0.0 0.0 0.00 0.12 0.12 85 1002.2
20160209233208 26 317 0.0 1.0 0.00 0.12 0.12 83 1002.1
20160209231707 27 317 0.0 0.0 0.00 0.12 0.12 81 1002.1
20160209230208 27 317 0.0 0.0 0.00 0.12 0.12 79 1002.0
20160209224706 27 317 0.0 0.0 0.00 0.12 0.12 77 1001.9
20160209223206 28 317 0.0 0.0 0.00 0.12 0.12 77 1002.0
20160209221706 28 317 0.0 0.0 0.00 0.12 0.12 74 1002.0